• Join FlightAware (Why Join?)
  • Login
  • US Flag 
05:04PM EST


 

Airport Tracker/Info


-or-


 

Live Flight TrackerFlight Track Log ✈ UAL5887 ✈ 01-May-2013 ✈ KORD - KABE

Flight Track Log - Related Links

Times and Time Zones

All times are in EDT time to prevent confusion due to time zone crossing. See the UAL5887 flight status page for this flight to view local times or setup timezone preferences in your user account.

Time Position Orientation Groundspeed Altitude Reporting Facility
EDT Latitude Longitude Course Direction KTS MPH feet Rate Location/Type
10:08AM 41.9167 -87.8833 90° East 188 216 3,100  Level Chicago TRACON
10:09AM 41.9333 -87.8000 75° East 262 302 5,000 1,140 Climbing Chicago TRACON
10:10AM 41.9333 -87.7000 90° East 273 314 5,400 1,785 Climbing Chicago TRACON
10:11AM 41.9333 -87.6000 90° East 273 314 8,600 2,750 Climbing Chicago TRACON
10:12AM 41.9333 -87.4833 90° East 286 329 10,900 2,077 Climbing Chicago TRACON
10:13AM 41.9333 -87.0487 90° East  Level FlightAware Approximate
10:13AM 41.9417 -87.3711 84° East 293 337 13,100  Level Chicago Center
10:14AM 41.9442 -87.2503 88° East 319 367 14,200 1,065 Climbing Chicago Center
10:15AM 41.9442 -87.1144 90° East 358 412 15,300 1,210 Climbing Chicago Center
10:16AM 41.9481 -86.9764 88° East 369 425 16,700 1,355 Climbing Chicago Center
10:17AM 41.9500 -86.8056 89° East 380 437 18,100 1,161 Climbing Chicago Center
10:18AM 41.9506 -86.6861 90° East 386 444 19,100 1,258 Climbing Chicago Center
10:19AM 41.9533 -86.5094 89° East 393 452 20,700 1,355 Climbing Chicago Center
10:20AM 41.9547 -86.3594 89° East 400 460 21,900 1,113 Climbing Chicago Center
10:21AM 41.9553 -86.2061 90° East 409 471 23,000 1,065 Climbing Chicago Center
10:22AM 41.9408 -86.0544 97° East 409 471 24,100 1,210 Climbing Chicago Center
10:23AM 41.9272 -85.9022 97° East 411 473 25,500 1,597 Climbing Chicago Center
10:24AM 41.9133 -85.7556 97° East 398 458 27,400 1,645 Climbing Chicago Center
10:25AM 41.8972 -85.5825 97° East 389 448 28,900 1,306 Climbing Chicago Center
10:26AM 41.8822 -85.4356 98° East 393 452 30,100 1,452 Climbing Chicago Center
10:27AM 41.8681 -85.2911 97° East 389 448 31,900 1,597 Climbing Chicago Center
10:28AM 41.8542 -85.1467 97° East 387 445 33,400 1,344 Climbing Chicago Center
10:29AM 41.8397 -85.0053 98° East 385 443 34,700 768 Climbing Chicago Center
10:30AM 41.8261 -84.8583 97° East 390 449 35,000 149 Climbing Cleveland Center
10:31AM 41.8089 -84.7008 98° East 403 464 35,000  Level Cleveland Center
10:32AM 41.7936 -84.5439 97° East 415 478 35,000  Level Cleveland Center
10:33AM 41.7781 -84.3842 97° East 420 483 35,000  Level Cleveland Center
10:34AM 41.7733 -84.2086 92° East 427 491 35,000  Level Cleveland Center
10:35AM 41.7636 -84.0519 95° East 427 491 35,000  Level Cleveland Center
10:36AM 41.7539 -83.8900 95° East 427 491 35,000  Level Cleveland Center
10:37AM 41.7439 -83.7281 95° East 427 491 35,000  Level Cleveland Center
10:38AM 41.7311 -83.5800 97° East 422 486 35,000  Level Cleveland Center
10:39AM 41.7222 -83.4347 95° East 403 464 35,000  Level Cleveland Center
10:40AM 41.7133 -83.2925 95° East 393 452 35,000  Level Cleveland Center
10:41AM 41.7019 -83.1531 96° East 385 443 35,000  Level Cleveland Center
10:42AM 41.6903 -83.0106 96° East 385 443 35,000  Level Cleveland Center
10:43AM 41.6808 -82.8686 95° East 385 443 35,000  Level Cleveland Center
10:44AM 41.6686 -82.7347 97° East 393 452 35,000  Level Cleveland Center
10:45AM 41.6589 -82.5897 95° East 393 452 35,000  Level Cleveland Center
10:46AM 41.6467 -82.4450 96° East 393 452 35,000  Level Cleveland Center
10:47AM 41.6364 -82.3000 95° East 385 443 35,000  Level Cleveland Center
10:48AM 41.6219 -82.1442 97° East 385 443 35,000  Level Cleveland Center
10:49AM 41.6114 -82.0022 96° East 386 444 35,000  Level Cleveland Center
10:50AM 41.5983 -81.8603 97° East 386 444 35,000  Level Cleveland Center
10:51AM 41.5853 -81.7158 97° East 391 450 35,000  Level Cleveland Center
10:52AM 41.5742 -81.5683 96° East 391 450 35,000  Level Cleveland Center
10:53AM 41.5608 -81.4211 97° East 391 450 35,000  Level Cleveland Center
10:54AM 41.5472 -81.2906 98° East 391 450 35,000  Level Cleveland Center
10:55AM 41.5333 -81.1461 97° East 391 450 35,000  Level Cleveland Center
10:56AM 41.5214 -80.9992 96° East 391 450 35,000  Level Cleveland Center
10:57AM 41.5072 -80.8547 97° East 386 444 35,000 -50 Level Cleveland Center
10:58AM 41.4931 -80.6942 97° East 386 444 34,900 -550 Descending Cleveland Center
10:59AM 41.4764 -80.5500 99° East 391 450 33,900 -950 Descending Cleveland Center
11:00AM 41.4617 -80.3975 97° East 397 457 33,000 -807 Descending Cleveland Center
11:01AM 41.4489 -80.2644 97° East 404 465 32,300 -756 Descending Cleveland Center
11:02AM 41.4336 -80.1150 98° East 404 465 31,500 -645 Descending Cleveland Center
11:03AM 41.4183 -79.9683 98° East 404 465 31,000 -248 Descending Cleveland Center
11:04AM 41.4031 -79.8164 98° East 404 465 31,000  Level Cleveland Center
11:05AM 41.3894 -79.6697 97° East 404 465 31,000  Level Cleveland Center
11:06AM 41.3736 -79.5233 98° East 404 465 31,000  Level Cleveland Center
11:07AM 41.3575 -79.3742 98° East 404 465 31,000  Level Cleveland Center
11:08AM 41.3411 -79.2225 98° East 409 471 31,000 -446 Level Cleveland Center
11:09AM 41.3225 -79.0736 99° East 409 471 30,100 -1,000 Descending Cleveland Center
11:10AM 41.3081 -78.9247 97° East 409 471 29,000 -1,050 Descending Cleveland Center
11:11AM 41.2911 -78.7786 99° East 409 471 28,000 -1,008 Descending Cleveland Center
11:12AM 41.2719 -78.6272 100° East 409 471 27,000 -1,008 Descending Cleveland Center
11:13AM 41.2569 -78.4783 98° East 409 471 26,000 -992 Descending Cleveland Center
11:14AM 41.2372 -78.3133 99° East 422 486 25,000 -500 Descending Cleveland Center
11:15AM 41.2147 -78.1431 100° East 427 491 25,000  Level Cleveland Center
11:16AM 41.1958 -78.0564 106° East 447 514 25,000  Level New York Center
11:17AM 41.1653 -77.9042 105° East 442 509 25,000 -350 Level New York Center
11:18AM 41.1369 -77.7525 104° East 430 495 24,300 -908 Descending New York Center
11:19AM 41.1064 -77.5978 105° East 430 495 23,200 -1,000 Descending New York Center
11:20AM 41.0753 -77.4461 105° East 435 501 22,300 -934 Descending New York Center
11:21AM 41.0444 -77.2917 105° East 430 495 21,300 -807 Descending New York Center
11:22AM 41.0147 -77.1483 105° East 423 487 20,700 -800 Descending New York Center
11:23AM 40.9847 -77.0081 106° East 410 472 19,700 -984 Descending New York Center
11:24AM 40.9583 -76.8739 105° East 391 450 18,700 -864 Descending New York Center
11:25AM 40.9300 -76.7339 105° East 366 421 18,000 -1,017 Descending New York Center
11:26AM 40.9011 -76.5997 106° East 366 421 16,700 -1,339 Descending New York Center
11:27AM 40.8778 -76.4794 104° East 375 432 15,300 -1,475 Descending New York Center
11:28AM 40.8483 -76.3536 107° East 363 418 13,700 -1,884 Descending New York Center
11:29AM 40.8233 -76.2200 104° East 352 405 11,500 -1,736 Descending New York Center
11:30AM 40.7992 -76.1111 106° East 329 379 10,200 -1,513 Descending New York Center
11:31AM 40.7786 -76.0136 106° East 292 336 8,500 -1,795 Descending New York Center
11:32AM 40.7550 -75.9322 111° Southeast 263 303 6,700 -1,800 Descending New York Center
11:33AM 40.7189 -75.8556 122° Southeast 255 293 4,900 -1,289 Descending New York Center
11:34AM 40.6847 -75.7764 120° Southeast 236 272 4,100 -843 Descending New York Center
11:35AM 40.6542 -75.7086 121° Southeast 220 253 3,200 -555 Descending New York Center
11:36AM 40.6275 -75.6464 119° Southeast 206 237 3,000 -353 Descending New York Center
11:37AM 40.6028 -75.5928 121° Southeast 201 231 2,500 -400 Descending New York Center
11:38AM 40.6031 -75.5353 90° East 162 186 2,200 -545 Descending New York Center
11:39AM 40.6169 -75.4953 65° Northeast 135 155 1,400 4,400 Descending New York Center
11:40AM 40.6172 -75.4406 90° East 135 155 11,000 4,881 Climbing New York Center
11:41AM 40.6231 -75.3944 81° East 135 155 11,000  Level New York Center
11:42AM 40.6314 -75.3458 77° East 135 155 11,000  Level New York Center
11:43AM 40.6369 -75.3081 79° East 135 155 11,000  Level New York Center